Location: Venezia
(45.4390°N, 12.3270°E)
Time: 12:01:30
(UTC+02:00)

ISS - Visible Passes

Search period start: 11 May 2021 00:00
Search period end: 21 May 2021 00:00
Orbit: 418 x 421 km, 51.6° (Epoch: 11 May)

Date Brightness Start Highest point End Pass type
(mag) Time Alt. Az. Time Alt. Az. Time Alt. Az.
11 May -1.9 02:04:21 31° N 02:04:21 31° N 02:07:03 10° NE visible
11 May -1.8 03:38:21 10° NW 03:41:23 30° N 03:44:25 10° ENE visible
12 May -1.3 01:18:16 20° NE 01:18:16 20° NE 01:19:37 10° NE visible
12 May -1.6 02:51:12 12° NW 02:53:47 27° N 02:56:46 10° ENE visible
12 May -3.0 04:27:44 10° WNW 04:31:04 56° NNE 04:34:24 10° ESE visible
13 May -0.7 00:32:06 11° NE 00:32:06 11° NE 00:32:12 10° NE visible
13 May -1.6 02:05:02 22° NW 02:06:12 27° N 02:09:10 10° ENE visible
13 May -2.4 03:40:19 10° NW 03:43:33 42° NNE 03:46:48 10° E visible
14 May -1.7 01:18:38 28° N 01:18:38 28° N 01:21:36 10° NE visible
14 May -2.0 02:52:53 10° NW 02:56:00 34° NNE 02:59:08 10° E visible
14 May -3.8 04:29:39 10° WNW 04:33:01 67° SSW 04:36:23 10° SE visible
14 May -1.9 21:16:07 10° SSE 21:17:39 13° SE 21:19:10 10° ESE visible
14 May -3.9 22:50:36 10° SW 22:53:57 80° SSE 22:55:37 28° ENE visible
15 May -1.9 00:27:57 10° WNW 00:31:01 32° NNW 00:34:06 10° NE visible
15 May -1.8 02:05:25 10° NW 02:08:27 30° N 02:11:29 10° ENE visible
15 May -3.7 03:42:12 10° WNW 03:45:36 81° NNE 03:48:58 10° ESE visible
15 May -3.6 22:03:18 10° SW 22:06:34 50° SE 22:09:50 10° ENE visible
15 May -2.3 23:40:17 10° W 23:43:28 38° NNW 23:46:40 10° NE visible
16 May -1.6 01:17:53 10° WNW 01:20:51 27° N 01:23:48 10° ENE visible
16 May -3.1 02:54:47 10° WNW 02:58:07 56° NNE 03:01:27 10° ESE visible
16 May -2.8 04:31:52 10° W 04:34:45 26° SW 04:37:38 10° SSE visible
16 May -3.0 21:16:11 10° SSW 21:19:13 31° SE 21:22:15 10° ENE visible
16 May -2.8 22:52:40 10° W 22:55:56 49° NNW 22:59:14 10° NE visible
17 May -1.6 00:30:18 10° WNW 00:33:15 27° N 00:36:12 10° ENE visible
17 May -2.5 02:07:22 10° NW 02:10:37 42° NNE 02:13:50 10° E visible
17 May -3.4 03:44:13 10° WNW 03:47:26 41° SW 03:50:38 10° SE visible
17 May -3.4 22:05:05 10° WSW 22:08:26 69° NNW 22:11:49 10° ENE visible
17 May -1.7 23:42:39 10° WNW 23:45:39 28° N 23:48:39 10° NE visible
18 May -2.1 01:19:55 10° NW 01:22:56 34° N 01:22:56 34° N visible
18 May -3.8 21:17:38 10° SW 21:20:59 80° SSE 21:24:22 10° ENE visible
18 May -1.9 22:55:00 10° WNW 22:58:04 32° NNW 23:01:08 10° NE visible
19 May -1.8 00:32:27 10° NW 00:35:29 30° N 00:36:32 24° NE visible
19 May -0.9 02:09:14 10° WNW 02:09:27 11° WNW 02:09:27 11° WNW visible
19 May -2.2 22:07:18 10° W 22:10:30 38° NNW 22:13:41 10° NE visible
19 May -1.6 23:44:55 10° WNW 23:47:52 27° N 23:50:21 13° ENE visible
20 May -1.7 01:21:49 10° WNW 01:23:16 23° NW 01:23:16 23° NW visible
20 May -2.7 21:19:40 10° W 21:22:57 49° NNW 21:26:15 10° NE visible
20 May -1.6 22:57:19 10° WNW 23:00:16 27° N 23:03:13 10° ENE visible
